Tracking 19193 objects as of 24-Jun-2018
HD Live streaming from Space Station
objects crossing your sky now

FENGYUN 1C DEB

Track FENGYUN 1C DEB now!
10-day predictions


NORAD ID: 36700
Int'l Code: 1999-025DZW
Perigee: 844.8 km
Apogee: 1,076.5 km
Inclination: 99.9 °
Period: 104.1 minutes
Semi major axis: 7331 km
RCS: 0.0103 m2 (small)
Launch date: May 10, 1999
Source: People's Republic of China (PRC)
Launch site: Taiyaun Space Center, China (TSC)

Note: This is SATELLITE DEBRIS
aabbcc
Your satellite tracking list
Your tracking list is empty




NASA's NSSDC Master Catalog

Two Line Element Set (TLE):
1 36700U 99025DZW 18174.39417492  .00000363  00000-0  34141-3 0  9999
2 36700  99.8755  23.5280 0157958 101.5330 260.3604 13.82932512515568
Source of the keplerian elements: AFSPC